AB2HM Weather Reports


Display with metric or nautical units.
time (UTC)temp
F
wind
direction
speed
MPH
gust
MPH
rain 1hr
in
rain 24hr
in
rain mn
in
humidity
%
barometer
mb
20260505051550 65 358 0.0 0.0 0.00 0.00 0.00 61 1011.9
20260505041543 64 25 0.0 0.0 0.00 0.00 0.00 62 1012.0
20260505034539 64 156 0.0 2.0 0.00 0.00 0.00 62 1011.8
20260505031538 64 195 0.0 4.0 0.00 0.00 0.00 61 1011.7
20260505024522 65 358 0.0 3.0 0.00 0.00 0.00 58 1012.1
20260505021514 65 358 0.0 0.0 0.00 0.00 0.00 52 1012.2
20260505014509 66 358 0.0 0.0 0.00 0.00 0.00 47 1012.1
20260505011454 67 358 0.0 0.0 0.00 0.00 0.00 46 1011.8
20260505004452 68 358 0.0 1.0 0.00 0.00 0.00 44 1011.6
20260505001448 69 26 0.0 0.0 0.00 0.00 0.00 41 1011.3
20260504231431 73 26 0.0 2.0 0.00 0.00 0.00 35 1011.1
20260504224408 74 180 0.0 8.0 0.00 0.00 0.00 32 1011.0
20260504221401 74 60 0.0 4.0 0.00 0.00 0.00 30 1011.1
20260504214347 75 78 0.0 11.0 0.00 0.00 0.00 30 1011.2
20260504211347 76 161 0.0 6.0 0.00 0.00 0.00 30 1011.1
20260504204335 76 180 0.0 8.0 0.00 0.00 0.00 29 1011.2
20260504201330 75 139 0.0 10.0 0.00 0.00 0.00 28 1011.3
20260504194321 76 171 1.0 14.0 0.00 0.00 0.00 28 1011.6
20260504191313 76 358 0.0 6.0 0.00 0.00 0.00 29 1011.9
20260504184307 73 40 0.0 9.0 0.00 0.00 0.00 29 1012.3
20260504181301 74 146 0.0 8.0 0.00 0.00 0.00 30 1012.8
20260504174300 73 14 0.0 5.0 0.00 0.00 0.00 30 1013.2
20260504171255 72 57 0.0 9.0 0.00 0.00 0.00 30 1013.6
20260504141155 64 191 0.0 3.0 0.00 0.00 0.00 50 1015.2
20260504081113 50 130 0.0 0.0 0.00 0.00 0.00 68 1016.2